Stations météo

réclame
Mon MeteoGroup
Deauville, France (7031): Température de l'air & dewpoint: 13.02.2020 22:00:00 - 19.02.2020 22:00:00 (CET)Deauville, France (7031): Température de l'air 5cm: 13.02.2020 22:00:00 - 19.02.2020 22:00:00 (CET)Deauville, France (7031): Vitesse du vent & gusts: 13.02.2020 22:00:00 - 19.02.2020 22:00:00 (CET)Deauville, France (7031): Direction du vent: 13.02.2020 22:00:00 - 19.02.2020 22:00:00 (CET)Deauville, France (7031): reduced air pressure: 13.02.2020 22:00:00 - 19.02.2020 22:00:00 (CET)Deauville, France (7031): visibility: 13.02.2020 22:00:00 - 19.02.2020 22:00:00 (CET)Deauville, France (7031): Quantités de précipitations: 13.02.2020 22:00:00 - 19.02.2020 22:00:00 (CET)
Date & Time tt [°C] td [°C] tt 5cm [°C] ff [km/h] ff [knt] fx [km/h] fx [knt] dd ppp [hPa] vv [km] rr [mm]
19.02.2020 22:00:00 8,3 6,9 7,1 14 8 31 17 SW 1022,1 18 0,0
19.02.2020 21:00:00 8,6 7,4 7,1 18 10 32 17 SW 1022,5 19 0,0
19.02.2020 20:00:00 8,1 7,2 6,8 14 7 26 14 SSW 1022,9 17 0,0
19.02.2020 19:00:00 8,0 7,2 7,1 13 7 23 13 SSW 1023,3 41 0,0
19.02.2020 18:00:00 8,3 7,2 7,7 12 7 25 13 SSW 1023,6 48 0,0
19.02.2020 17:00:00 8,2 7,3 7,6 15 8 28 15 SW 1024,1 19 0,2
19.02.2020 16:00:00 8,3 6,4 7,6 15 8 27 15 SSW 1024,6 17 0,0
19.02.2020 15:00:00 8,0 6,6 7,8 13 7 27 15 SSW 1025,3 9 0,6
19.02.2020 14:00:00 8,2 5,7 7,5 19 10 36 19 SW 1025,8 11 0,0
19.02.2020 13:00:00 8,8 4,6 9,5 20 11 40 22 WSW 1026,2 17 0,0
19.02.2020 12:00:00 8,3 4,1 8,9 25 14 44 24 WSW 1026,5 15 0,0
19.02.2020 11:00:00 7,7 4,3 7,2 25 14 39 21 W 1026,5 16 0,0
19.02.2020 10:00:00 6,6 3,9 6,1 18 10 32 17 WSW 1026,2 16 0,0
19.02.2020 09:00:00 6,3 3,8 5,5 20 11 31 17 W 1025,9 17 0,0
19.02.2020 08:00:00 6,0 3,7 5,2 20 11 33 18 W 1025,4 17 0,0
19.02.2020 07:00:00 6,6 2,9 5,1 25 13 42 23 W 1024,9 20 0,0
19.02.2020 06:00:00 6,1 4,1 5,5 26 14 46 25 W 1024,3 16 0,0
19.02.2020 05:00:00 6,1 4,7 4,8 23 12 40 22 W 1023,6 14 0,8
19.02.2020 04:00:00 5,8 4,4 4,9 24 13 37 20 WSW 1023,3 17 0,0
19.02.2020 03:00:00 6,0 4,5 5,0 23 12 41 22 W 1022,6 17 0,0
19.02.2020 02:00:00 5,5 4,3 4,6 22 12 49 26 W 1022,5 13 0,6
19.02.2020 01:00:00 6,7 4,4 5,7 26 14 49 26 WNW 1021,8 13 0,8
19.02.2020 00:00:00 6,5 5,8 4,0 28 15 53 29 W 1021,6 15 3,4
18.02.2020 23:00:00 5,1 3,4 3,1 40 22 66 36 W 1022,3 1,5 3,3
18.02.2020 22:00:00 8,2 4,6 7,0 24 13 51 28 SW 1021,4 60 0,0
18.02.2020 21:00:00 8,3 4,3 7,6 22 12 46 25 SW 1022,4 60 0,0
18.02.2020 20:00:00 8,4 4,0 7,4 25 13 42 23 SW 1023,2 60 0,0
18.02.2020 19:00:00 8,4 4,0 7,7 19 10 47 26 SW 1024,0 60 0,0
18.02.2020 18:00:00 8,9 3,1 8,1 20 11 40 22 SW 1024,1 60 0,0
18.02.2020 17:00:00 9,4 2,9 9,0 22 12 49 26 WSW 1024,7 51 0,0
18.02.2020 16:00:00 10,0 3,3 9,8 24 13 46 25 WSW 1025,5 60 0,0
18.02.2020 15:00:00 9,4 4,6 9,2 23 12 54 29 WSW 1026,0 20 0,0
18.02.2020 14:00:00 9,0 3,6 9,2 30 16 51 27 WSW 1026,5 19 0,0
18.02.2020 13:00:00 8,9 4,3 9,1 24 13 45 24 SW 1026,9 20 0,0
18.02.2020 12:00:00 9,0 5,6 8,2 24 13 43 23 WSW 1027,3 18 0,0
18.02.2020 11:00:00 7,1 4,6 5,1 21 11 38 20 SW 1027,7 19 0,0
18.02.2020 10:00:00 5,2 3,4 4,6 19 10 37 20 SW 1027,6 16 0,0
18.02.2020 09:00:00 4,2 2,5 2,6 16 9 31 17 SSW 1027,2 19 0,0
18.02.2020 08:00:00 3,8 2,0 2,8 16 9 30 16 SW 1026,8 19 0,0
18.02.2020 07:00:00 3,8 2,3 2,6 16 8 28 15 SSW 1026,5 19 0,0
18.02.2020 06:00:00 3,9 2,4 2,6 15 8 29 16 SSW 1026,5 20 0,0
18.02.2020 05:00:00 4,8 2,8 3,8 19 10 34 18 SW 1026,1 19 0,0
18.02.2020 04:00:00 4,5 3,0 3,1 19 10 35 19 SW 1026,1 19 0,0
18.02.2020 03:00:00 4,5 2,7 3,3 17 9 36 20 SW 1026,0 58 0,0
18.02.2020 02:00:00 4,5 2,7 3,3 20 11 39 21 SW 1025,7 59 0,0
18.02.2020 01:00:00 4,7 2,9 3,6 20 11 38 20 SW 1025,3 57 0,0
18.02.2020 00:00:00 5,4 2,7 3,5 22 12 37 20 WSW 1024,8 59 0,0
17.02.2020 23:00:00 5,4 3,6 4,0 26 14 50 27 WSW 1024,2 17 0,2
17.02.2020 22:00:00 5,5 3,5 3,9 26 14 53 29 WSW 1023,5 7 0,4
17.02.2020 21:00:00 5,7 3,0 4,4 21 11 38 20 SW 1022,5 60 0,0
17.02.2020 20:00:00 6,0 3,3 4,7 24 13 52 28 WSW 1022,1 16 0,0
17.02.2020 19:00:00 6,7 3,5 5,8 23 12 64 34 WSW 1021,2 58 0,0
17.02.2020 18:00:00 7,6 4,5 5,9 29 15 61 33 WSW 1019,9 20 0,2
17.02.2020 17:00:00 8,5 3,9 8,2 31 17 54 29 WSW 1018,9 20 0,0
17.02.2020 16:00:00 8,3 3,9 6,1 27 15 59 32 WSW 1018,4 46 0,4
17.02.2020 15:00:00 7,1 4,2 6,0 40 21 68 37 W 1017,9 4,5 0,4
17.02.2020 14:00:00 9,9 3,4 9,5 34 18 62 33 WSW 1016,9 20 0,0
17.02.2020 13:00:00 9,8 2,9 8,1 34 19 63 34 SW 1016,7 20 0,0
17.02.2020 12:00:00 8,5 2,9 8,1 31 17 64 34 WSW 1016,6 49 0,0
17.02.2020 11:00:00 8,8 3,8 8,1 32 17 62 34 SW 1016,0 20 0,0
17.02.2020 10:00:00 8,2 3,8 6,7 30 16 51 27 SW 1015,1 19 0,0
17.02.2020 09:00:00 7,1 4,4 5,8 23 12 44 24 SSW 1014,4 19 0,0
17.02.2020 08:00:00 6,6 4,9 5,1 19 10 37 20 SSW 1014,1 15 0,0
17.02.2020 07:00:00 6,2 4,8 4,6 18 10 30 16 S 1014,1 14 0,0
17.02.2020 06:00:00 5,9 4,7 4,2 16 9 26 14 S 1014,2 14 0,0
17.02.2020 05:00:00 5,7 4,2 4,2 14 7 26 14 S 1014,4 16 0,0
17.02.2020 04:00:00 6,1 4,3 4,5 17 9 27 15 SSW 1014,5 19 0,0
17.02.2020 03:00:00 6,5 4,0 5,1 16 8 34 19 SSW 1014,7 20 0,0
17.02.2020 02:00:00 7,0 3,8 5,8 21 12 37 20 SSW 1014,4 49 0,0
17.02.2020 01:00:00 7,3 3,7 5,9 21 11 43 23 SW 1013,9 52 0,0
17.02.2020 00:00:00 7,8 4,4 6,8 26 14 48 26 SW 1013,1 59 0,0
16.02.2020 23:00:00 8,0 5,3 7,1 23 12 50 27 SW 1012,0 60 0,0
16.02.2020 22:00:00 8,0 5,8 7,2 26 14 53 28 SW 1010,8 60 0,0
16.02.2020 21:00:00 8,2 5,1 7,1 29 16 59 32 SW 1009,6 60 0,0
16.02.2020 20:00:00 7,6 5,2 6,8 27 14 53 28 SW 1008,8 60 0,0
16.02.2020 19:00:00 7,6 6,4 6,9 29 16 55 30 WSW 1007,9 13 2,0
16.02.2020 18:00:00 7,4 7,0 7,1 19 10 48 26 WSW 1006,4 5 2,3
16.02.2020 17:00:00 7,5 6,8 7,2 26 14 94 51 WNW 1005,4 2,6 5,5
16.02.2020 16:00:00 14,9 11,5 14,4 48 26 107 58 SSW 1000,8 60 0,0
16.02.2020 15:00:00 15,4 11,2 14,9 48 26 85 46 SSW 1000,3 52 0,0
16.02.2020 14:00:00 15,5 11,5 14,7 50 27 105 57 SSW 1000,2 42 0,0
16.02.2020 13:00:00 15,0 11,6 13,7 49 27 90 49 SSW 1001,2 19 0,0
16.02.2020 12:00:00 14,5 11,8 12,5 47 25 81 44 SSW 1001,8 38 0,0
16.02.2020 11:00:00 13,2 11,8 12,4 34 18 71 39 SSW 1002,8 6 0,0
16.02.2020 10:00:00 13,3 11,4 12,8 40 21 77 42 SSW 1003,0 17 0,0
16.02.2020 09:00:00 13,5 11,0 13,0 45 24 94 51 SSW 1002,8 59 0,0
16.02.2020 08:00:00 13,6 10,9 12,6 47 25 91 49 SSW 1003,1 60 0,0
16.02.2020 07:00:00 13,5 11,0 11,7 45 24 84 45 SSW 1003,6 60 0,0
16.02.2020 06:00:00 12,5 11,1 11,4 44 24 78 42 SSW 1004,1 60 0,7
16.02.2020 05:00:00 12,2 10,9 11,3 45 24 78 42 SSW 1004,6 5 1,0
16.02.2020 04:00:00 12,3 10,9 11,2 46 25 80 43 SSW 1005,6 60 0,2
16.02.2020 03:00:00 11,8 10,9 11,1 34 18 67 36 S 1006,7 17 1,6
16.02.2020 02:00:00 11,7 10,8 11,1 36 19 64 35 S 1007,7 6 2,4
16.02.2020 01:00:00 12,0 10,4 11,0 35 19 67 36 SSW 1007,9 13 0,2
16.02.2020 00:00:00 12,4 9,8 11,5 37 20 67 36 S 1008,3 60 0,0
15.02.2020 23:00:00 11,9 9,5 10,8 32 17 67 36 S 1009,3 50 0,0
15.02.2020 22:00:00 12,2 9,0 11,2 30 16 61 33 SSW 1009,9 60 0,0
15.02.2020 21:00:00 12,1 9,1 11,4 33 18 69 37 S 1009,5 49 0,0
15.02.2020 20:00:00 12,4 9,2 11,3 39 21 69 37 S 1010,2 60 0,0
15.02.2020 19:00:00 12,0 8,8 10,4 36 19 74 40 S 1010,7 60 0,0
15.02.2020 18:00:00 12,3 8,4 11,1 37 20 74 40 SSW 1011,6 56 0,0
15.02.2020 17:00:00 12,5 8,0 11,8 34 18 69 38 S 1011,6 50 0,0
15.02.2020 16:00:00 12,4 7,9 11,9 35 19 71 38 S 1012,1 46 0,0
15.02.2020 15:00:00 12,5 8,0 12,1 35 19 63 34 S 1012,6 41 0,0
15.02.2020 14:00:00 12,4 8,3 12,3 29 16 66 36 SSW 1014,0 35 0,0
15.02.2020 13:00:00 12,3 8,4 12,4 30 16 61 33 S 1014,7 36 0,0
15.02.2020 12:00:00 12,2 8,7 11,6 33 18 61 33 SSW 1015,5 20 0,0
15.02.2020 11:00:00 11,1 8,8 10,7 32 17 49 27 SSW 1016,5 25 0,0
15.02.2020 10:00:00 10,9 8,8 10,5 24 13 52 28 S 1016,9 20 0,0
15.02.2020 09:00:00 10,4 8,8 9,8 26 14 47 26 S 1017,9 17 0,0
15.02.2020 08:00:00 10,2 9,0 9,6 27 14 48 26 S 1017,9 16 0,0
15.02.2020 07:00:00 10,1 8,9 9,5 24 13 48 26 S 1018,0 18 0,0
15.02.2020 06:00:00 9,9 8,8 8,9 24 13 46 25 S 1018,4 18 0,0
15.02.2020 05:00:00 9,7 8,5 8,5 24 13 50 27 S 1019,0 17 0,0
15.02.2020 04:00:00 9,2 8,0 7,9 22 12 36 19 S 1019,7 15 0,0
15.02.2020 03:00:00 9,0 7,8 7,8 24 13 44 24 S 1020,0 15 0,0
15.02.2020 02:00:00 8,9 7,3 7,6 23 12 42 23 SSW 1020,4 14 0,0
15.02.2020 01:00:00 8,7 7,0 7,8 23 13 45 24 SSW 1020,6 13 0,0
15.02.2020 00:00:00 9,0 6,6 8,0 26 14 45 24 S 1020,9 13 0,0
14.02.2020 23:00:00 9,0 6,3 8,0 21 11 39 21 SSW 1021,6 13 0,0
14.02.2020 22:00:00 9,2 6,1 8,0 26 14 40 22 S 1021,4 13 0,0
14.02.2020 21:00:00 9,3 6,2 8,0 19 10 36 19 S 1022,2 13 0,0
14.02.2020 20:00:00 9,5 6,0 7,2 17 9 29 16 SSW 1022,2 14 0,0
14.02.2020 19:00:00 9,4 5,9 7,8 15 8 36 19 S 1022,0 13 0,0
14.02.2020 18:00:00 10,3 6,3 9,2 21 11 43 23 S 1022,0 16 0,0
14.02.2020 17:00:00 10,9 6,4 10,8 24 13 42 23 SSW 1022,0 16 0,0
14.02.2020 16:00:00 11,5 6,6 12,7 24 13 45 24 S 1021,6 14 0,0
14.02.2020 15:00:00 11,5 6,2 13,2 23 12 42 23 SSW 1021,9 15 0,0
14.02.2020 14:00:00 11,4 6,3 12,4 27 15 42 23 SSW 1022,1 16 0,0
14.02.2020 13:00:00 11,0 6,9 11,4 21 11 37 20 SW 1022,6 17 0,0
14.02.2020 12:00:00 10,0 6,2 10,9 19 10 34 19 SSW 1023,1 15 0,0
14.02.2020 11:00:00 9,6 6,5 9,4 18 10 28 15 SW 1023,0 15 0,0
14.02.2020 10:00:00 8,7 6,0 8,0 15 8 26 14 WSW 1022,7 14 0,0
14.02.2020 09:00:00 8,1 6,2 7,6 12 7 24 13 SW 1022,0 13 -
14.02.2020 08:00:00 8,0 6,5 7,5 14 8 31 17 WSW 1021,1 10 0,0
14.02.2020 07:00:00 7,9 6,5 7,4 19 10 31 17 WSW 1020,3 10 0,0
14.02.2020 06:00:00 7,8 6,4 7,2 16 9 32 18 WSW 1019,4 9 0,0
14.02.2020 05:00:00 8,0 6,6 7,4 18 10 36 19 W 1018,8 9 0,0
14.02.2020 04:00:00 7,8 6,6 6,7 19 10 34 19 WSW 1017,8 8 0,0
14.02.2020 03:00:00 8,2 6,8 7,9 20 11 41 22 WSW 1017,0 8 0,0
14.02.2020 02:00:00 8,3 7,1 7,9 21 11 41 22 W 1016,4 7 0,0
14.02.2020 01:00:00 8,2 6,7 7,5 22 12 39 21 WSW 1015,7 8 0,0
14.02.2020 00:00:00 7,8 6,4 6,7 25 13 40 21 W 1014,7 10 0,0
13.02.2020 23:00:00 8,1 6,4 7,4 24 13 43 23 W 1013,8 10 0,0
13.02.2020 22:00:00 8,4 6,0 7,3 29 15 46 25 W 1012,2 11 0,0

tt = Température de l'air
td = dewpoint
tt 5cm = Température de l'air 5cm
ff = Vitesse du vent
fx = gusts
dd = Direction du vent
ppp = reduced air pressure
vv = visibility
rr = Quantités de précipitations

stations d'obs. à proximité